| time (UTC) | temp F | wind direction | speed knots | gust knots | rain 1hr in | rain 24hr in | rain mn in | humidity % | barometer mb |
| 20260906221605 | 103 | 132 | 0.0 | 7.0 | 0.00 | 0.00 | 0.00 | 37 | 1011.2 |
| 20260906221055 | 103 | 194 | 1.7 | 7.0 | 0.00 | 0.00 | 0.00 | 37 | 1011.3 |
| 20260906220556 | 103 | 113 | 0.9 | 6.1 | 0.00 | 0.00 | 0.00 | 37 | 1011.3 |
| 20260906215555 | 103 | 69 | 1.7 | 7.0 | 0.00 | 0.00 | 0.00 | 37 | 1011.3 |
| 20260906215056 | 103 | 186 | 1.7 | 7.0 | 0.00 | 0.00 | 0.00 | 37 | 1011.5 |
| 20260906214603 | 103 | 201 | 0.9 | 9.6 | 0.00 | 0.00 | 0.00 | 38 | 1011.5 |
| 20260906214055 | 103 | 148 | 1.7 | 9.6 | 0.00 | 0.00 | 0.00 | 37 | 1011.6 |
| 20260906213555 | 103 | 104 | 2.6 | 9.6 | 0.00 | 0.00 | 0.00 | 36 | 1011.6 |
| 20260906213106 | 103 | 61 | 2.6 | 7.0 | 0.00 | 0.00 | 0.00 | 37 | 1011.6 |
| 20260906212555 | 103 | 61 | 1.7 | 6.1 | 0.00 | 0.00 | 0.00 | 36 | 1011.7 |
| 20260906212056 | 104 | 196 | 0.9 | 7.0 | 0.00 | 0.00 | 0.00 | 36 | 1011.8 |
| 20260906211604 | 104 | 202 | 0.9 | 7.8 | 0.00 | 0.00 | 0.00 | 37 | 1011.8 |
| 20260906211057 | 103 | 184 | 2.6 | 7.8 | 0.00 | 0.00 | 0.00 | 37 | 1012.0 |
| 20260906210557 | 104 | 66 | 1.7 | 5.2 | 0.00 | 0.00 | 0.00 | 36 | 1012.0 |
| 20260906210115 | 103 | 82 | 0.9 | 6.1 | 0.00 | 0.00 | 0.00 | 37 | 1012.2 |
| 20260906205557 | 104 | 121 | 1.7 | 6.1 | 0.00 | 0.00 | 0.00 | 37 | 1012.3 |
| 20260906205055 | 103 | 160 | 0.9 | 6.1 | 0.00 | 0.00 | 0.00 | 39 | 1012.3 |
| 20260906204608 | 103 | 78 | 0.9 | 7.8 | 0.00 | 0.00 | 0.00 | 37 | 1012.5 |
| 20260906204056 | 103 | 166 | 2.6 | 7.8 | 0.00 | 0.00 | 0.00 | 38 | 1012.5 |
| 20260906203556 | 103 | 260 | 1.7 | 8.7 | 0.00 | 0.00 | 0.00 | 37 | 1012.5 |
| 20260906203104 | 103 | 82 | 1.7 | 8.7 | 0.00 | 0.00 | 0.00 | 37 | 1012.5 |
| 20260906202555 | 103 | 141 | 1.7 | 7.0 | 0.00 | 0.00 | 0.00 | 38 | 1012.6 |
| 20260906202101 | 103 | 138 | 0.9 | 6.1 | 0.00 | 0.00 | 0.00 | 38 | 1012.7 |
| 20260906201603 | 103 | 209 | 1.7 | 11.3 | 0.00 | 0.00 | 0.00 | 37 | 1012.8 |
| 20260906201056 | 103 | 37 | 0.9 | 11.3 | 0.00 | 0.00 | 0.00 | 38 | 1012.8 |
| 20260906200555 | 103 | 78 | 0.9 | 7.0 | 0.00 | 0.00 | 0.00 | 37 | 1012.8 |
| 20260906200104 | 103 | 121 | 1.7 | 8.7 | 0.00 | 0.00 | 0.00 | 38 | 1012.9 |
| 20260906195556 | 103 | 223 | 0.9 | 8.7 | 0.00 | 0.00 | 0.00 | 38 | 1012.9 |
| 20260906195056 | 103 | 69 | 2.6 | 8.7 | 0.00 | 0.00 | 0.00 | 38 | 1013.0 |
| 20260906194609 | 103 | 138 | 1.7 | 8.7 | 0.00 | 0.00 | 0.00 | 38 | 1013.0 |
| 20260906194056 | 103 | 194 | 2.6 | 9.6 | 0.00 | 0.00 | 0.00 | 37 | 1013.0 |
| 20260906193556 | 102 | 37 | 2.6 | 12.2 | 0.00 | 0.00 | 0.00 | 37 | 1013.2 |
| 20260906193102 | 102 | 215 | 1.7 | 12.2 | 0.00 | 0.00 | 0.00 | 38 | 1013.3 |
| 20260906192556 | 102 | 173 | 2.6 | 10.4 | 0.00 | 0.00 | 0.00 | 38 | 1013.3 |
| 20260906192059 | 102 | 111 | 1.7 | 10.4 | 0.00 | 0.00 | 0.00 | 38 | 1013.3 |
| 20260906191605 | 102 | 104 | 2.6 | 7.0 | 0.00 | 0.00 | 0.00 | 38 | 1013.3 |
| 20260906191056 | 102 | 94 | 1.7 | 7.0 | 0.00 | 0.00 | 0.00 | 39 | 1013.4 |
| 20260906190558 | 101 | 93 | 1.7 | 8.7 | 0.00 | 0.00 | 0.00 | 39 | 1013.5 |
| 20260906190103 | 101 | 94 | 2.6 | 10.4 | 0.00 | 0.00 | 0.00 | 39 | 1013.5 |
| 20260906185556 | 101 | 53 | 2.6 | 10.4 | 0.00 | 0.00 | 0.00 | 39 | 1013.4 |
| 20260906185056 | 101 | 91 | 2.6 | 8.7 | 0.00 | 0.00 | 0.00 | 39 | 1013.5 |
| 20260906184610 | 101 | 76 | 2.6 | 9.6 | 0.00 | 0.00 | 0.00 | 39 | 1013.6 |
| 20260906184055 | 101 | 60 | 1.7 | 9.6 | 0.00 | 0.00 | 0.00 | 40 | 1013.7 |
| 20260906183555 | 101 | 96 | 5.2 | 9.6 | 0.00 | 0.00 | 0.00 | 38 | 1013.7 |
| 20260906183105 | 101 | 91 | 3.5 | 9.6 | 0.00 | 0.00 | 0.00 | 40 | 1013.7 |
| 20260906182555 | 101 | 85 | 2.6 | 9.6 | 0.00 | 0.00 | 0.00 | 40 | 1013.9 |
| 20260906182056 | 100 | 123 | 2.6 | 7.0 | 0.00 | 0.00 | 0.00 | 40 | 1013.9 |
| 20260906181609 | 100 | 79 | 1.7 | 10.4 | 0.00 | 0.00 | 0.00 | 41 | 1013.9 |
| 20260906181057 | 100 | 95 | 1.7 | 10.4 | 0.00 | 0.00 | 0.00 | 42 | 1014.0 |
| 20260906180555 | 99 | 57 | 4.3 | 9.6 | 0.00 | 0.00 | 0.00 | 42 | 1014.1 |
| 20260906180105 | 99 | 68 | 3.5 | 9.6 | 0.00 | 0.00 | 0.00 | 42 | 1014.0 |
| 20260906175555 | 100 | 67 | 3.5 | 9.6 | 0.00 | 0.00 | 0.00 | 41 | 1014.2 |
| 20260906175055 | 100 | 18 | 1.7 | 7.8 | 0.00 | 0.00 | 0.00 | 43 | 1014.4 |
| 20260906174602 | 100 | 0 | 2.6 | 7.8 | 0.00 | 0.00 | 0.00 | 43 | 1014.4 |
| 20260906174056 | 100 | 140 | 1.7 | 6.1 | 0.00 | 0.00 | 0.00 | 42 | 1014.4 |
| 20260906173556 | 100 | 71 | 2.6 | 6.1 | 0.00 | 0.00 | 0.00 | 42 | 1014.6 |
| 20260906173108 | 100 | 120 | 0.9 | 6.1 | 0.00 | 0.00 | 0.00 | 44 | 1014.7 |
| 20260906172555 | 100 | 122 | 1.7 | 7.0 | 0.00 | 0.00 | 0.00 | 44 | 1014.8 |
| 20260906172056 | 100 | 132 | 1.7 | 7.0 | 0.00 | 0.00 | 0.00 | 43 | 1014.7 |
| 20260906171604 | 100 | 146 | 1.7 | 7.0 | 0.00 | 0.00 | 0.00 | 43 | 1014.8 |
| 20260906171058 | 100 | 55 | 2.6 | 7.0 | 0.00 | 0.00 | 0.00 | 43 | 1014.9 |
| 20260906170555 | 100 | 120 | 0.9 | 7.0 | 0.00 | 0.00 | 0.00 | 44 | 1014.9 |
| 20260906170106 | 100 | 95 | 2.6 | 7.0 | 0.00 | 0.00 | 0.00 | 43 | 1015.0 |
| 20260906165556 | 100 | 0 | 0.9 | 7.0 | 0.00 | 0.00 | 0.00 | 45 | 1015.0 |
| 20260906165055 | 99 | 219 | 0.9 | 7.0 | 0.00 | 0.00 | 0.00 | 45 | 1015.1 |
| 20260906164620 | 99 | 90 | 1.7 | 6.1 | 0.00 | 0.00 | 0.00 | 46 | 1015.0 |
| 20260906164055 | 99 | 87 | 0.9 | 6.1 | 0.00 | 0.00 | 0.00 | 45 | 1015.1 |
| 20260906163555 | 99 | 98 | 1.7 | 5.2 | 0.00 | 0.00 | 0.00 | 46 | 1015.1 |
| 20260906163100 | 99 | 169 | 0.9 | 3.5 | 0.00 | 0.00 | 0.00 | 45 | 1015.0 |
| 20260906162556 | 98 | 160 | 0.9 | 4.3 | 0.00 | 0.00 | 0.00 | 46 | 1015.1 |
| 20260906162055 | 98 | 113 | 1.7 | 4.3 | 0.00 | 0.00 | 0.00 | 47 | 1015.0 |
| 20260906161605 | 97 | 203 | 0.9 | 6.1 | 0.00 | 0.00 | 0.00 | 48 | 1015.0 |
| 20260906161055 | 97 | 0 | 1.7 | 7.0 | 0.00 | 0.00 | 0.00 | 48 | 1014.9 |
| 20260906160555 | 96 | 52 | 1.7 | 7.0 | 0.00 | 0.00 | 0.00 | 48 | 1014.9 |
| 20260906160101 | 97 | 67 | 1.7 | 5.2 | 0.00 | 0.00 | 0.00 | 48 | 1015.0 |
| 20260906155556 | 97 | 91 | 1.7 | 5.2 | 0.00 | 0.00 | 0.00 | 49 | 1015.0 |
| 20260906155059 | 96 | 107 | 0.9 | 7.8 | 0.00 | 0.00 | 0.00 | 51 | 1014.9 |
| 20260906154602 | 96 | 71 | 1.7 | 7.8 | 0.00 | 0.00 | 0.00 | 49 | 1015.0 |
| 20260906154058 | 96 | 136 | 0.9 | 6.1 | 0.00 | 0.00 | 0.00 | 51 | 1014.9 |
| 20260906153555 | 95 | 94 | 1.7 | 3.5 | 0.00 | 0.00 | 0.00 | 51 | 1014.9 |
| 20260906153104 | 95 | 0 | 0.9 | 3.5 | 0.00 | 0.00 | 0.00 | 53 | 1014.9 |
| 20260906152556 | 94 | 0 | 0.9 | 4.3 | 0.00 | 0.00 | 0.00 | 54 | 1014.7 |
| 20260906152055 | 94 | 86 | 0.9 | 4.3 | 0.00 | 0.00 | 0.00 | 54 | 1014.7 |
| 20260906151607 | 94 | 92 | 0.0 | 3.5 | 0.00 | 0.00 | 0.00 | 57 | 1014.5 |
| 20260906151056 | 93 | 74 | 0.0 | 1.7 | 0.00 | 0.00 | 0.00 | 57 | 1014.6 |
| 20260906150555 | 93 | 76 | 0.0 | 2.6 | 0.00 | 0.00 | 0.00 | 59 | 1014.5 |
| 20260906145556 | 92 | 74 | 0.9 | 2.6 | 0.00 | 0.00 | 0.00 | 60 | 1014.4 |
| 20260906145056 | 91 | 81 | 0.0 | 2.6 | 0.00 | 0.00 | 0.00 | 61 | 1014.4 |
| 20260906144629 | 91 | 83 | 0.9 | 3.5 | 0.00 | 0.00 | 0.00 | 61 | 1014.3 |
| 20260906144055 | 90 | 105 | 0.9 | 3.5 | 0.00 | 0.00 | 0.00 | 62 | 1014.3 |
| 20260906143556 | 90 | 110 | 0.9 | 2.6 | 0.00 | 0.00 | 0.00 | 64 | 1014.3 |
| 20260906143116 | 89 | 0 | 0.0 | 2.6 | 0.00 | 0.00 | 0.00 | 65 | 1014.3 |
| 20260906142555 | 88 | 142 | 0.0 | 2.6 | 0.00 | 0.00 | 0.00 | 68 | 1014.2 |
| 20260906142056 | 87 | 0 | 0.0 | 1.7 | 0.00 | 0.00 | 0.00 | 70 | 1014.3 |
| 20260906141605 | 86 | 0 | 0.0 | 1.7 | 0.00 | 0.00 | 0.00 | 72 | 1014.3 |
| 20260906141055 | 86 | 0 | 0.0 | 1.7 | 0.00 | 0.00 | 0.00 | 75 | 1014.4 |
| 20260906140556 | 85 | 0 | 0.0 | 0.9 | 0.00 | 0.00 | 0.00 | 78 | 1014.4 |
| 20260906135555 | 83 | 0 | 0.0 | 2.6 | 0.00 | 0.00 | 0.00 | 81 | 1014.4 |
| 20260906135056 | 82 | 0 | 0.0 | 1.7 | 0.00 | 0.00 | 0.00 | 81 | 1014.5 |
| 20260906134601 | 82 | 0 | 0.0 | 2.6 | 0.00 | 0.00 | 0.00 | 83 | 1014.5 |
| 20260906134056 | 81 | 0 | 0.0 | 2.6 | 0.00 | 0.00 | 0.00 | 84 | 1014.5 |
| 20260906133559 | 81 | 0 | 0.0 | 2.6 | 0.00 | 0.00 | 0.00 | 84 | 1014.5 |
| 20260906133109 | 80 | 130 | 0.0 | 2.6 | 0.00 | 0.00 | 0.00 | 85 | 1014.5 |
| 20260906132556 | 80 | 0 | 0.0 | 2.6 | 0.00 | 0.00 | 0.00 | 85 | 1014.6 |
| 20260906132058 | 79 | 0 | 0.0 | 0.0 | 0.00 | 0.00 | 0.00 | 86 | 1014.6 |
| 20260906131610 | 79 | 0 | 0.0 | 0.0 | 0.00 | 0.00 | 0.00 | 86 | 1014.5 |
| 20260906131055 | 78 | 0 | 0.0 | 0.0 | 0.00 | 0.00 | 0.00 | 87 | 1014.4 |
| 20260906130555 | 78 | 0 | 0.0 | 0.0 | 0.00 | 0.00 | 0.00 | 86 | 1014.4 |
| 20260906130103 | 78 | 0 | 0.0 | 0.0 | 0.00 | 0.00 | 0.00 | 86 | 1014.3 |
| 20260906125555 | 77 | 0 | 0.0 | 0.0 | 0.00 | 0.00 | 0.00 | 86 | 1014.2 |
| 20260906125054 | 77 | 0 | 0.0 | 0.0 | 0.00 | 0.00 | 0.00 | 86 | 1014.2 |
| 20260906124605 | 77 | 0 | 0.0 | 0.0 | 0.00 | 0.00 | 0.00 | 86 | 1014.2 |
| 20260906124056 | 76 | 0 | 0.0 | 0.0 | 0.00 | 0.00 | 0.00 | 86 | 1014.3 |
| 20260906123555 | 76 | 0 | 0.0 | 0.0 | 0.00 | 0.00 | 0.00 | 86 | 1014.3 |
| 20260906123111 | 76 | 0 | 0.0 | 0.0 | 0.00 | 0.00 | 0.00 | 86 | 1014.2 |
| 20260906122556 | 76 | 0 | 0.0 | 0.0 | 0.00 | 0.00 | 0.00 | 86 | 1014.2 |
| 20260906122057 | 76 | 0 | 0.0 | 0.0 | 0.00 | 0.00 | 0.00 | 86 | 1014.1 |
| 20260906121602 | 76 | 0 | 0.0 | 0.0 | 0.00 | 0.00 | 0.00 | 86 | 1014.1 |
| 20260906121056 | 76 | 0 | 0.0 | 0.0 | 0.00 | 0.00 | 0.00 | 86 | 1014.0 |
| 20260906120558 | 76 | 0 | 0.0 | 0.0 | 0.00 | 0.00 | 0.00 | 86 | 1013.9 |
| 20260906120113 | 76 | 0 | 0.0 | 0.0 | 0.00 | 0.00 | 0.00 | 86 | 1013.8 |
| 20260906115556 | 76 | 0 | 0.0 | 0.0 | 0.00 | 0.00 | 0.00 | 86 | 1013.9 |
| 20260906115057 | 76 | 0 | 0.0 | 0.0 | 0.00 | 0.00 | 0.00 | 86 | 1013.9 |
| 20260906114601 | 76 | 0 | 0.0 | 0.0 | 0.00 | 0.00 | 0.00 | 86 | 1013.8 |
| 20260906114056 | 76 | 0 | 0.0 | 0.0 | 0.00 | 0.00 | 0.00 | 86 | 1013.7 |
| 20260906113555 | 76 | 0 | 0.0 | 0.0 | 0.00 | 0.00 | 0.00 | 86 | 1013.7 |
| 20260906113103 | 76 | 0 | 0.0 | 0.0 | 0.00 | 0.00 | 0.00 | 86 | 1013.6 |
| 20260906112555 | 76 | 0 | 0.0 | 0.0 | 0.00 | 0.00 | 0.00 | 86 | 1013.6 |
| 20260906112055 | 76 | 0 | 0.0 | 0.0 | 0.00 | 0.00 | 0.00 | 86 | 1013.6 |
| 20260906111600 | 76 | 0 | 0.0 | 0.0 | 0.00 | 0.00 | 0.00 | 86 | 1013.6 |
| 20260906111059 | 76 | 0 | 0.0 | 0.0 | 0.00 | 0.00 | 0.00 | 86 | 1013.6 |
| 20260906110555 | 76 | 0 | 0.0 | 0.0 | 0.00 | 0.00 | 0.00 | 86 | 1013.6 |
| 20260906110111 | 76 | 0 | 0.0 | 0.0 | 0.00 | 0.00 | 0.00 | 86 | 1013.6 |
| 20260906105556 | 76 | 0 | 0.0 | 0.0 | 0.00 | 0.00 | 0.00 | 86 | 1013.5 |
| 20260906105056 | 76 | 0 | 0.0 | 0.0 | 0.00 | 0.00 | 0.00 | 86 | 1013.4 |
| 20260906104605 | 76 | 0 | 0.0 | 0.0 | 0.00 | 0.00 | 0.00 | 86 | 1013.4 |
| 20260906104058 | 76 | 0 | 0.0 | 0.0 | 0.00 | 0.00 | 0.00 | 86 | 1013.3 |
| 20260906103556 | 76 | 0 | 0.0 | 0.0 | 0.00 | 0.00 | 0.00 | 86 | 1013.3 |
| 20260906103105 | 76 | 0 | 0.0 | 0.0 | 0.00 | 0.00 | 0.00 | 86 | 1013.2 |
| 20260906102555 | 76 | 0 | 0.0 | 0.0 | 0.00 | 0.00 | 0.00 | 85 | 1013.2 |
| 20260906102055 | 76 | 0 | 0.0 | 0.0 | 0.00 | 0.00 | 0.00 | 85 | 1013.2 |
| 20260906101604 | 76 | 0 | 0.0 | 0.0 | 0.00 | 0.00 | 0.00 | 85 | 1013.2 |
| 20260906101055 | 76 | 0 | 0.0 | 0.0 | 0.00 | 0.00 | 0.00 | 85 | 1013.2 |
| 20260906100556 | 76 | 0 | 0.0 | 0.0 | 0.00 | 0.00 | 0.00 | 85 | 1013.2 |
| 20260906100110 | 76 | 0 | 0.0 | 0.0 | 0.00 | 0.00 | 0.00 | 85 | 1013.2 |
| 20260906095556 | 76 | 0 | 0.0 | 0.0 | 0.00 | 0.00 | 0.00 | 85 | 1013.3 |
| 20260906095059 | 76 | 0 | 0.0 | 0.0 | 0.00 | 0.00 | 0.00 | 85 | 1013.2 |
| 20260906094559 | 76 | 0 | 0.0 | 0.0 | 0.00 | 0.00 | 0.00 | 85 | 1013.3 |
| 20260906094055 | 76 | 0 | 0.0 | 0.9 | 0.00 | 0.00 | 0.00 | 85 | 1013.3 |
| 20260906093556 | 76 | 0 | 0.0 | 0.9 | 0.00 | 0.00 | 0.00 | 85 | 1013.2 |
| 20260906093117 | 76 | 0 | 0.0 | 0.9 | 0.00 | 0.00 | 0.00 | 84 | 1013.1 |
| 20260906092556 | 76 | 0 | 0.0 | 0.0 | 0.00 | 0.00 | 0.00 | 84 | 1013.0 |
| 20260906092056 | 77 | 0 | 0.0 | 0.0 | 0.00 | 0.00 | 0.00 | 84 | 1013.1 |
| 20260906091600 | 77 | 0 | 0.0 | 0.0 | 0.00 | 0.00 | 0.00 | 83 | 1013.0 |
| 20260906091059 | 77 | 0 | 0.0 | 0.0 | 0.00 | 0.00 | 0.00 | 83 | 1012.9 |
| 20260906090555 | 77 | 0 | 0.0 | 1.7 | 0.00 | 0.00 | 0.00 | 83 | 1012.8 |
| 20260906090124 | 77 | 0 | 0.0 | 1.7 | 0.00 | 0.00 | 0.00 | 82 | 1012.8 |
| 20260906085555 | 78 | 0 | 0.0 | 0.9 | 0.00 | 0.00 | 0.00 | 82 | 1012.7 |
| 20260906085055 | 78 | 0 | 0.0 | 1.7 | 0.00 | 0.00 | 0.00 | 81 | 1012.7 |
| 20260906084601 | 79 | 0 | 0.0 | 1.7 | 0.00 | 0.00 | 0.00 | 81 | 1012.8 |
| 20260906084056 | 79 | 0 | 0.0 | 1.7 | 0.00 | 0.00 | 0.00 | 81 | 1012.8 |
| 20260906083555 | 80 | 0 | 0.0 | 0.9 | 0.00 | 0.00 | 0.00 | 80 | 1012.6 |
| 20260906083103 | 81 | 0 | 0.0 | 0.9 | 0.00 | 0.00 | 0.00 | 80 | 1012.5 |
| 20260906082556 | 81 | 0 | 0.0 | 1.7 | 0.00 | 0.00 | 0.00 | 79 | 1012.4 |
| 20260906082057 | 82 | 0 | 0.0 | 1.7 | 0.00 | 0.00 | 0.00 | 78 | 1012.4 |
| 20260906081604 | 82 | 0 | 0.0 | 1.7 | 0.00 | 0.00 | 0.00 | 75 | 1012.4 |
| 20260906081059 | 82 | 0 | 0.0 | 2.6 | 0.00 | 0.00 | 0.00 | 73 | 1012.4 |
| 20260906080556 | 82 | 192 | 0.0 | 2.6 | 0.00 | 0.00 | 0.00 | 73 | 1012.5 |
| 20260906080104 | 82 | 0 | 0.0 | 2.6 | 0.00 | 0.00 | 0.00 | 73 | 1012.7 |
| 20260906075555 | 82 | 191 | 0.0 | 2.6 | 0.00 | 0.00 | 0.00 | 72 | 1012.7 |
| 20260906075055 | 82 | 0 | 0.0 | 1.7 | 0.00 | 0.00 | 0.00 | 72 | 1012.7 |
| 20260906074606 | 82 | 0 | 0.0 | 0.9 | 0.00 | 0.00 | 0.00 | 72 | 1012.7 |
| 20260906074055 | 82 | 191 | 0.0 | 0.9 | 0.00 | 0.00 | 0.00 | 72 | 1012.7 |
| 20260906073555 | 82 | 0 | 0.0 | 1.7 | 0.00 | 0.00 | 0.00 | 71 | 1012.8 |
| 20260906073100 | 82 | 0 | 0.0 | 1.7 | 0.00 | 0.00 | 0.00 | 71 | 1012.8 |
| 20260906072558 | 82 | 0 | 0.0 | 1.7 | 0.00 | 0.00 | 0.00 | 71 | 1012.9 |
| 20260906072056 | 82 | 0 | 0.0 | 1.7 | 0.00 | 0.00 | 0.00 | 70 | 1013.0 |
| 20260906071610 | 82 | 0 | 0.0 | 1.7 | 0.00 | 0.00 | 0.00 | 70 | 1013.1 |
| 20260906071056 | 82 | 0 | 0.0 | 0.9 | 0.00 | 0.00 | 0.00 | 70 | 1013.0 |
| 20260906070556 | 82 | 192 | 0.0 | 0.9 | 0.00 | 0.00 | 0.00 | 70 | 1013.2 |
| 20260906070103 | 82 | 0 | 0.0 | 1.7 | 0.00 | 0.00 | 0.00 | 70 | 1013.1 |
| 20260906065556 | 82 | 0 | 0.0 | 1.7 | 0.00 | 0.00 | 0.00 | 70 | 1013.1 |
| 20260906065055 | 83 | 0 | 0.0 | 1.7 | 0.00 | 0.00 | 0.00 | 69 | 1013.1 |
| 20260906064601 | 83 | 0 | 0.0 | 0.9 | 0.00 | 0.00 | 0.00 | 69 | 1013.0 |
| 20260906064056 | 83 | 0 | 0.0 | 1.7 | 0.00 | 0.00 | 0.00 | 69 | 1012.9 |
| 20260906063555 | 83 | 192 | 0.0 | 1.7 | 0.00 | 0.00 | 0.00 | 69 | 1012.9 |
| 20260906063106 | 83 | 0 | 0.0 | 1.7 | 0.00 | 0.00 | 0.00 | 68 | 1012.9 |
| 20260906062555 | 83 | 0 | 0.0 | 1.7 | 0.00 | 0.00 | 0.00 | 68 | 1012.9 |
| 20260906062059 | 83 | 0 | 0.0 | 2.6 | 0.00 | 0.00 | 0.00 | 68 | 1012.8 |
| 20260906061602 | 83 | 0 | 0.9 | 2.6 | 0.00 | 0.00 | 0.00 | 68 | 1013.0 |
| 20260906061055 | 83 | 0 | 0.0 | 1.7 | 0.00 | 0.00 | 0.00 | 68 | 1013.1 |
| 20260906060555 | 83 | 192 | 0.0 | 1.7 | 0.00 | 0.00 | 0.00 | 67 | 1012.9 |
| 20260906060106 | 84 | 0 | 0.0 | 2.6 | 0.00 | 0.00 | 0.00 | 67 | 1012.9 |
| 20260906055555 | 84 | 0 | 0.0 | 2.6 | 0.00 | 0.00 | 0.00 | 67 | 1013.0 |
| 20260906055056 | 84 | 191 | 0.0 | 1.7 | 0.00 | 0.00 | 0.00 | 66 | 1013.0 |
| 20260906054612 | 84 | 191 | 0.0 | 0.9 | 0.00 | 0.00 | 0.00 | 66 | 1013.1 |
| 20260906054056 | 84 | 0 | 0.0 | 0.9 | 0.00 | 0.00 | 0.00 | 65 | 1013.2 |
| 20260906053556 | 84 | 0 | 0.0 | 0.9 | 0.00 | 0.00 | 0.00 | 65 | 1013.2 |
| 20260906053102 | 84 | 0 | 0.0 | 1.7 | 0.00 | 0.00 | 0.00 | 65 | 1013.2 |
| 20260906052555 | 85 | 0 | 0.0 | 1.7 | 0.00 | 0.00 | 0.00 | 65 | 1013.1 |
| 20260906052056 | 85 | 0 | 0.0 | 1.7 | 0.00 | 0.00 | 0.00 | 65 | 1013.1 |
| 20260906051606 | 85 | 0 | 0.0 | 1.7 | 0.00 | 0.00 | 0.00 | 64 | 1013.2 |
| 20260906051055 | 85 | 0 | 0.0 | 0.0 | 0.00 | 0.00 | 0.00 | 64 | 1013.0 |
| 20260906050555 | 85 | 0 | 0.0 | 0.9 | 0.00 | 0.00 | 0.00 | 64 | 1013.0 |
| 20260906050133 | 85 | 0 | 0.0 | 3.5 | 0.00 | 0.00 | 0.00 | 63 | 1013.0 |
| 20260906045556 | 85 | 0 | 0.0 | 3.5 | 0.00 | 0.00 | 0.00 | 63 | 1013.1 |
| 20260906045058 | 85 | 190 | 0.0 | 3.5 | 0.00 | 0.00 | 0.00 | 63 | 1013.1 |
| 20260906044604 | 85 | 190 | 0.0 | 2.6 | 0.00 | 0.00 | 0.00 | 63 | 1013.1 |
| 20260906044056 | 86 | 0 | 0.0 | 2.6 | 0.00 | 0.00 | 0.00 | 62 | 1013.2 |
| 20260906043555 | 86 | 0 | 0.0 | 2.6 | 0.00 | 0.00 | 0.00 | 62 | 1013.2 |
| 20260906043109 | 86 | 0 | 0.0 | 1.7 | 0.00 | 0.00 | 0.00 | 62 | 1013.2 |
| 20260906042556 | 86 | 0 | 0.0 | 2.6 | 0.00 | 0.00 | 0.00 | 61 | 1013.1 |
| 20260906042058 | 86 | 0 | 0.0 | 2.6 | 0.00 | 0.00 | 0.00 | 61 | 1013.1 |
| 20260906041602 | 86 | 0 | 0.0 | 2.6 | 0.00 | 0.00 | 0.00 | 61 | 1013.0 |
| 20260906041055 | 87 | 0 | 0.0 | 2.6 | 0.00 | 0.00 | 0.00 | 60 | 1012.9 |
| 20260906040556 | 87 | 0 | 0.0 | 2.6 | 0.00 | 0.00 | 0.00 | 60 | 1012.9 |
| 20260906040104 | 87 | 0 | 0.0 | 3.5 | 0.00 | 0.00 | 0.00 | 60 | 1012.9 |
| 20260906035556 | 87 | 0 | 0.0 | 3.5 | 0.00 | 0.00 | 0.00 | 60 | 1012.9 |
| 20260906035056 | 87 | 179 | 0.0 | 1.7 | 0.00 | 0.00 | 0.00 | 59 | 1013.1 |
| 20260906034601 | 87 | 0 | 0.0 | 2.6 | 0.00 | 0.00 | 0.00 | 59 | 1013.0 |
| 20260906034059 | 87 | 184 | 0.0 | 2.6 | 0.00 | 0.00 | 0.00 | 59 | 1013.0 |
| 20260906033556 | 88 | 182 | 0.0 | 2.6 | 0.00 | 0.00 | 0.00 | 58 | 1013.1 |
| 20260906033101 | 88 | 0 | 0.0 | 4.3 | 0.00 | 0.00 | 0.00 | 58 | 1013.0 |
| 20260906032555 | 88 | 92 | 0.0 | 4.3 | 0.00 | 0.00 | 0.00 | 58 | 1013.1 |
| 20260906032056 | 88 | 150 | 0.0 | 3.5 | 0.00 | 0.00 | 0.00 | 57 | 1013.1 |
| 20260906031601 | 88 | 142 | 0.9 | 5.2 | 0.00 | 0.00 | 0.00 | 57 | 1013.0 |
| 20260906031056 | 89 | 161 | 0.0 | 5.2 | 0.00 | 0.00 | 0.00 | 57 | 1013.0 |
| 20260906030556 | 89 | 0 | 0.9 | 5.2 | 0.00 | 0.00 | 0.00 | 56 | 1013.0 |
| 20260906030135 | 89 | 0 | 0.0 | 3.5 | 0.00 | 0.00 | 0.00 | 56 | 1013.0 |
| 20260906025556 | 89 | 0 | 0.9 | 3.5 | 0.00 | 0.00 | 0.00 | 56 | 1012.9 |
| 20260906025056 | 90 | 0 | 0.9 | 3.5 | 0.00 | 0.00 | 0.00 | 55 | 1012.8 |
| 20260906024603 | 90 | 109 | 0.0 | 4.3 | 0.00 | 0.00 | 0.00 | 54 | 1012.7 |
| 20260906024055 | 90 | 175 | 0.9 | 7.0 | 0.00 | 0.00 | 0.00 | 54 | 1012.6 |
| 20260906023556 | 90 | 148 | 0.9 | 7.0 | 0.00 | 0.00 | 0.00 | 54 | 1012.5 |
| 20260906023126 | 91 | 192 | 0.9 | 6.1 | 0.00 | 0.00 | 0.00 | 53 | 1012.5 |
| 20260906022555 | 91 | 117 | 0.9 | 7.0 | 0.00 | 0.00 | 0.00 | 52 | 1012.4 |
| 20260906022057 | 91 | 149 | 1.7 | 7.0 | 0.00 | 0.00 | 0.00 | 51 | 1012.2 |
| 20260906021614 | 92 | 108 | 1.7 | 4.3 | 0.00 | 0.00 | 0.00 | 50 | 1012.2 |
| 20260906021057 | 92 | 86 | 0.0 | 1.7 | 0.00 | 0.00 | 0.00 | 47 | 1012.0 |
| 20260906020555 | 92 | 0 | 0.0 | 1.7 | 0.00 | 0.00 | 0.00 | 47 | 1012.0 |
| 20260906015555 | 93 | 0 | 0.0 | 1.7 | 0.00 | 0.00 | 0.00 | 46 | 1011.9 |
| 20260906015056 | 93 | 0 | 0.0 | 0.9 | 0.00 | 0.00 | 0.00 | 45 | 1011.7 |
| 20260906014621 | 93 | 0 | 0.0 | 0.9 | 0.00 | 0.00 | 0.00 | 45 | 1011.6 |
| 20260906014055 | 93 | 0 | 0.0 | 0.9 | 0.00 | 0.00 | 0.00 | 44 | 1011.6 |
| 20260906013555 | 93 | 0 | 0.0 | 0.9 | 0.00 | 0.00 | 0.00 | 44 | 1011.6 |
| 20260906013102 | 94 | 0 | 0.0 | 0.9 | 0.00 | 0.00 | 0.00 | 43 | 1011.6 |
| 20260906012555 | 94 | 0 | 0.0 | 0.9 | 0.00 | 0.00 | 0.00 | 43 | 1011.5 |
| 20260906012055 | 94 | 0 | 0.0 | 0.9 | 0.00 | 0.00 | 0.00 | 43 | 1011.4 |
| 20260906011607 | 95 | 0 | 0.0 | 0.9 | 0.00 | 0.00 | 0.00 | 42 | 1011.3 |
| 20260906011056 | 95 | 0 | 0.0 | 0.9 | 0.00 | 0.00 | 0.00 | 42 | 1011.4 |
| 20260906010555 | 95 | 0 | 0.0 | 2.6 | 0.00 | 0.00 | 0.00 | 41 | 1011.2 |
| 20260906010104 | 96 | 0 | 0.0 | 2.6 | 0.00 | 0.00 | 0.00 | 41 | 1011.2 |
| 20260906005555 | 96 | 84 | 0.0 | 2.6 | 0.00 | 0.00 | 0.00 | 41 | 1011.1 |
| 20260906005055 | 96 | 117 | 0.0 | 2.6 | 0.00 | 0.00 | 0.00 | 41 | 1011.1 |
| 20260906004609 | 97 | 116 | 0.9 | 5.2 | 0.00 | 0.00 | 0.00 | 40 | 1011.2 |
| 20260906004056 | 97 | 0 | 0.0 | 5.2 | 0.00 | 0.00 | 0.00 | 40 | 1011.2 |
| 20260906003556 | 97 | 112 | 0.9 | 5.2 | 0.00 | 0.00 | 0.00 | 39 | 1011.1 |
| 20260906003109 | 98 | 0 | 0.0 | 3.5 | 0.00 | 0.00 | 0.00 | 39 | 1011.1 |
| 20260906002555 | 98 | 0 | 0.0 | 4.3 | 0.00 | 0.00 | 0.00 | 39 | 1011.1 |
| 20260906002056 | 98 | 0 | 0.0 | 5.2 | 0.00 | 0.00 | 0.00 | 39 | 1011.2 |
| 20260906001604 | 98 | 73 | 0.9 | 5.2 | 0.00 | 0.00 | 0.00 | 39 | 1011.1 |
| 20260906001056 | 98 | 88 | 0.9 | 5.2 | 0.00 | 0.00 | 0.00 | 39 | 1011.1 |
| 20260906000555 | 99 | 94 | 1.7 | 6.1 | 0.00 | 0.00 | 0.00 | 38 | 1011.1 |
| 20260905235556 | 99 | 73 | 1.7 | 6.1 | 0.00 | 0.00 | 0.00 | 37 | 1011.0 |
| 20260905235056 | 100 | 94 | 0.9 | 6.1 | 0.00 | 0.00 | 0.00 | 37 | 1011.0 |
| 20260905234615 | 100 | 95 | 0.9 | 6.1 | 0.00 | 0.00 | 0.00 | 37 | 1011.0 |
| 20260905234056 | 100 | 67 | 1.7 | 5.2 | 0.00 | 0.00 | 0.00 | 37 | 1010.9 |
| 20260905233556 | 101 | 126 | 0.9 | 5.2 | 0.00 | 0.00 | 0.00 | 36 | 1010.9 |
| 20260905233059 | 101 | 136 | 0.9 | 6.1 | 0.00 | 0.00 | 0.00 | 36 | 1010.9 |
| 20260905232555 | 101 | 76 | 1.7 | 6.1 | 0.00 | 0.00 | 0.00 | 36 | 1010.9 |
| 20260905232056 | 101 | 88 | 0.9 | 5.2 | 0.00 | 0.00 | 0.00 | 35 | 1010.9 |
| 20260905231603 | 101 | 99 | 0.9 | 5.2 | 0.00 | 0.00 | 0.00 | 35 | 1011.0 |
| 20260905231055 | 102 | 66 | 0.0 | 5.2 | 0.00 | 0.00 | 0.00 | 35 | 1010.9 |
| 20260905230555 | 102 | 90 | 1.7 | 5.2 | 0.00 | 0.00 | 0.00 | 35 | 1010.9 |
| 20260905230103 | 102 | 63 | 1.7 | 5.2 | 0.00 | 0.00 | 0.00 | 35 | 1010.9 |
| 20260905225559 | 102 | 107 | 0.9 | 5.2 | 0.00 | 0.00 | 0.00 | 35 | 1010.9 |
| 20260905225056 | 102 | 101 | 0.0 | 3.5 | 0.00 | 0.00 | 0.00 | 35 | 1010.9 |
| 20260905224609 | 101 | 0 | 0.9 | 7.0 | 0.00 | 0.00 | 0.00 | 35 | 1010.9 |
| 20260905224056 | 101 | 73 | 0.9 | 7.0 | 0.00 | 0.00 | 0.00 | 35 | 1010.8 |
| 20260905223557 | 102 | 65 | 2.6 | 9.6 | 0.00 | 0.00 | 0.00 | 35 | 1010.9 |
| 20260905223104 | 102 | 82 | 3.5 | 9.6 | 0.00 | 0.00 | 0.00 | 36 | 1011.0 |
| 20260905222555 | 102 | 79 | 1.7 | 8.7 | 0.00 | 0.00 | 0.00 | 35 | 1010.9 |
| 20260905222055 | 103 | 67 | 4.3 | 8.7 | 0.00 | 0.00 | 0.00 | 34 | 1010.9 |